Terminal Aerodrome Forecast
Issued by NWS Knoxville/Tri Cities, TN

Home | Current Version | Previous Version | Text Only | Print | Product List | Glossary On
Versions: 1 2 3 4 5 6 7 8 9 10 11 12 13 14 15 16 17 18 19 20 21 22 23 24 25 26 27 28 29 30 31 32 33 34 35 36 37 38 39 40 41 42 43 44 45 46 47 48 49 50
000
FTUS44 KMRX 060112 AAA
TAFTRI
TAF AMD
KTRI 060112Z 0601/0624 22003KT P6SM VCSH SCT035 OVC070
      TEMPO 0601/0603 6SM -SHRA BR BKN035
     FM060400 VRB02KT P6SM SCT030 BKN080
     FM060700 00000KT 3SM BR SCT009 BKN015
     FM061300 VRB03KT 6SM BR BKN020
     FM061500 25007KT P6SM SCT035 SCT080=

USA.gov is the U.S. government's official web portal to all federal, state and local government web resources and services.